| time (UTC) | temp C | wind direction | speed KPH | gust KPH | rain 1hr cm | rain 24hr cm | rain mn cm | humidity % | barometer mb |
| 20260508050005 | 5 | 333 | 0.0 | 0.0 | 0.00 | 0.13 | 0.00 | 87 | 1004.3 |
| 20260508044505 | 5 | 23 | 9.7 | 24.1 | 0.00 | 0.13 | 0.00 | 89 | 1004.1 |
| 20260508043002 | 5 | 11 | 8.0 | 29.0 | 0.00 | 0.13 | 0.00 | 89 | 1004.1 |
| 20260508041557 | 6 | 36 | 22.5 | 32.2 | 0.00 | 0.13 | 0.00 | 88 | 1004.0 |
| 20260508040058 | 6 | 6 | 11.3 | 30.6 | 0.00 | 0.13 | 0.00 | 89 | 1003.9 |
| 20260508034555 | 6 | 347 | 0.0 | 0.0 | 0.00 | 0.13 | 0.13 | 89 | 1003.7 |
| 20260508033052 | 6 | 23 | 0.0 | 0.0 | 0.00 | 0.13 | 0.13 | 89 | 1003.7 |
| 20260508031556 | 6 | 31 | 0.0 | 0.0 | 0.00 | 0.13 | 0.13 | 89 | 1003.7 |
| 20260508030052 | 6 | 329 | 0.0 | 0.0 | 0.00 | 0.13 | 0.13 | 89 | 1003.9 |
| 20260508024554 | 6 | 356 | 0.0 | 0.0 | 0.00 | 0.13 | 0.13 | 89 | 1003.9 |
| 20260508023050 | 6 | 19 | 0.0 | 14.5 | 0.00 | 0.13 | 0.13 | 89 | 1003.9 |
| 20260508021554 | 6 | 30 | 0.0 | 14.5 | 0.00 | 0.13 | 0.13 | 88 | 1004.0 |
| 20260508020056 | 6 | 29 | 0.0 | 0.0 | 0.03 | 0.13 | 0.13 | 88 | 1003.9 |
| 20260508014552 | 6 | 29 | 0.0 | 0.0 | 0.03 | 0.13 | 0.13 | 87 | 1003.8 |
| 20260508013049 | 6 | 18 | 0.0 | 1.6 | 0.03 | 0.13 | 0.13 | 87 | 1003.9 |
| 20260508011549 | 6 | 4 | 1.6 | 29.0 | 0.03 | 0.13 | 0.13 | 88 | 1003.9 |
| 20260508010047 | 6 | 335 | 20.9 | 38.6 | 0.00 | 0.10 | 0.10 | 88 | 1003.8 |
| 20260508004548 | 7 | 10 | 17.7 | 29.0 | 0.03 | 0.10 | 0.10 | 89 | 1003.7 |
| 20260508003047 | 7 | 4 | 0.0 | 1.6 | 0.03 | 0.10 | 0.10 | 89 | 1003.5 |
| 20260508001546 | 7 | 356 | 0.0 | 0.0 | 0.03 | 0.10 | 0.10 | 89 | 1003.4 |
| 20260508000050 | 7 | 35 | 0.0 | 0.0 | 0.03 | 0.10 | 0.10 | 89 | 1003.2 |
| 20260507234546 | 7 | 35 | 0.0 | 0.0 | 0.00 | 0.08 | 0.08 | 89 | 1003.1 |
| 20260507233048 | 7 | 35 | 0.0 | 0.0 | 0.00 | 0.08 | 0.08 | 89 | 1002.9 |
| 20260507231546 | 7 | 35 | 0.0 | 0.0 | 0.00 | 0.08 | 0.08 | 87 | 1002.8 |
| 20260507230050 | 8 | 35 | 0.0 | 0.0 | 0.00 | 0.08 | 0.08 | 86 | 1002.8 |
| 20260507224545 | 8 | 35 | 0.0 | 0.0 | 0.00 | 0.08 | 0.08 | 86 | 1002.7 |
| 20260507223043 | 8 | 35 | 0.0 | 0.0 | 0.00 | 0.08 | 0.08 | 85 | 1002.7 |
| 20260507221543 | 8 | 35 | 0.0 | 0.0 | 0.00 | 0.08 | 0.08 | 84 | 1002.7 |
| 20260507220042 | 8 | 11 | 0.0 | 0.0 | 0.00 | 0.08 | 0.08 | 85 | 1002.6 |
| 20260507214554 | 8 | 335 | 0.0 | 17.7 | 0.00 | 0.10 | 0.08 | 85 | 1002.5 |
| 20260507213044 | 8 | 358 | 0.0 | 6.4 | 0.00 | 0.10 | 0.08 | 85 | 1002.5 |
| 20260507211541 | 8 | 326 | 8.0 | 27.4 | 0.00 | 0.10 | 0.08 | 85 | 1002.5 |
| 20260507210041 | 8 | 312 | 0.0 | 24.1 | 0.00 | 0.10 | 0.08 | 86 | 1002.6 |
| 20260507204539 | 8 | 333 | 6.4 | 27.4 | 0.00 | 0.10 | 0.08 | 87 | 1002.6 |
| 20260507203054 | 8 | 360 | 9.7 | 30.6 | 0.00 | 0.10 | 0.08 | 85 | 1002.5 |
| 20260507201551 | 8 | 6 | 11.3 | 30.6 | 0.00 | 0.10 | 0.08 | 85 | 1002.3 |
| 20260507200058 | 8 | 321 | 1.6 | 30.6 | 0.00 | 0.10 | 0.08 | 85 | 1002.2 |
| 20260507194538 | 8 | 34 | 30.6 | 54.7 | 0.00 | 0.10 | 0.08 | 85 | 1002.2 |
| 20260507193044 | 8 | 46 | 40.2 | 53.1 | 0.00 | 0.10 | 0.08 | 84 | 1002.1 |
| 20260507191537 | 8 | 47 | 45.1 | 59.5 | 0.00 | 0.10 | 0.08 | 81 | 1002.0 |
| 20260507190037 | 10 | 283 | 19.3 | 45.1 | 0.00 | 0.10 | 0.08 | 80 | 1001.7 |
| 20260507184533 | 10 | 233 | 3.2 | 56.3 | 0.00 | 0.15 | 0.08 | 83 | 1001.8 |
| 20260507183034 | 10 | 256 | 9.7 | 56.3 | 0.03 | 0.15 | 0.08 | 76 | 1001.5 |
| 20260507181532 | 10 | 251 | 41.8 | 64.4 | 0.03 | 0.15 | 0.08 | 82 | 1001.2 |
| 20260507180037 | 9 | 222 | 53.1 | 62.8 | 0.03 | 0.15 | 0.08 | 87 | 1001.2 |
| 20260507174526 | 8 | 208 | 59.5 | 85.3 | 0.03 | 0.28 | 0.08 | 88 | 1001.4 |
| 20260507173031 | 10 | 218 | 48.3 | 69.2 | 0.00 | 0.25 | 0.05 | 77 | 1001.4 |
| 20260507171521 | 9 | 204 | 53.1 | 66.0 | 0.00 | 0.25 | 0.05 | 86 | 1001.4 |
| 20260507170018 | 9 | 206 | 32.2 | 43.5 | 0.00 | 0.25 | 0.05 | 83 | 1001.6 |
| 20260507164514 | 8 | 196 | 0.0 | 20.9 | 0.05 | 0.36 | 0.05 | 88 | 1001.7 |
| 20260507163014 | 8 | 230 | 35.4 | 49.9 | 0.05 | 0.36 | 0.05 | 87 | 1002.0 |
| 20260507161511 | 8 | 251 | 41.8 | 62.8 | 0.05 | 0.36 | 0.05 | 89 | 1001.9 |
| 20260507160012 | 7 | 197 | 59.5 | 77.2 | 0.03 | 0.33 | 0.03 | 89 | 1001.9 |
| 20260507154508 | 8 | 229 | 56.3 | 85.3 | 0.00 | 0.30 | 0.00 | 86 | 1002.7 |
| 20260507153007 | 8 | 251 | 67.6 | 86.9 | 0.00 | 0.30 | 0.00 | 86 | 1002.3 |
| 20260507151507 | 8 | 251 | 67.6 | 88.5 | 0.00 | 0.30 | 0.00 | 87 | 1002.5 |
| 20260507150019 | 8 | 202 | 64.4 | 85.3 | 0.00 | 0.30 | 0.00 | 87 | 1002.4 |
| 20260507144511 | 8 | 208 | 59.5 | 77.2 | 0.00 | 0.30 | 0.00 | 87 | 1002.5 |
| 20260507143109 | 8 | 170 | 32.2 | 48.3 | 0.00 | 0.30 | 0.00 | 86 | 1002.9 |
| 20260507141602 | 8 | 157 | 25.7 | 38.6 | 0.00 | 0.30 | 0.00 | 85 | 1002.9 |
| 20260507140057 | 8 | 166 | 4.8 | 20.9 | 0.00 | 0.30 | 0.00 | 85 | 1003.1 |
| 20260507134551 | 7 | 166 | 1.6 | 20.9 | 0.00 | 0.33 | 0.00 | 88 | 1003.3 |
| 20260507133102 | 7 | 138 | 8.0 | 32.2 | 0.00 | 0.33 | 0.00 | 87 | 1003.4 |
| 20260507131553 | 7 | 204 | 0.0 | 0.0 | 0.00 | 0.33 | 0.00 | 89 | 1003.4 |
| 20260507130101 | 6 | 171 | 0.0 | 1.6 | 0.00 | 0.33 | 0.00 | 90 | 1003.3 |
| 20260507124542 | 6 | 156 | 0.0 | 19.3 | 0.00 | 0.38 | 0.00 | 91 | 1003.7 |
| 20260507123042 | 6 | 156 | 24.1 | 33.8 | 0.00 | 0.38 | 0.00 | 92 | 1003.5 |
| 20260507121543 | 6 | 265 | 0.0 | 0.0 | 0.00 | 0.38 | 0.00 | 90 | 1003.7 |
| 20260507120052 | 6 | 332 | 0.0 | 0.0 | 0.00 | 0.38 | 0.00 | 92 | 1003.7 |
| 20260507114602 | 6 | 332 | 0.0 | 0.0 | 0.00 | 0.38 | 0.00 | 93 | 1003.8 |
| 20260507113035 | 5 | 5 | 0.0 | 0.0 | 0.00 | 0.38 | 0.00 | 93 | 1003.9 |
| 20260507111536 | 5 | 28 | 0.0 | 0.0 | 0.00 | 0.38 | 0.00 | 93 | 1003.8 |
| 20260507110034 | 5 | 7 | 0.0 | 0.0 | 0.00 | 0.38 | 0.00 | 93 | 1003.8 |
| 20260507104533 | 4 | 355 | 0.0 | 0.0 | 0.00 | 0.38 | 0.00 | 93 | 1003.6 |
| 20260507103033 | 4 | 31 | 0.0 | 0.0 | 0.00 | 0.38 | 0.00 | 93 | 1003.6 |
| 20260507101532 | 4 | 2 | 0.0 | 0.0 | 0.00 | 0.38 | 0.00 | 93 | 1003.7 |
| 20260507100034 | 4 | 335 | 0.0 | 0.0 | 0.00 | 0.38 | 0.00 | 93 | 1003.6 |
| 20260507094531 | 4 | 355 | 0.0 | 0.0 | 0.00 | 0.38 | 0.00 | 93 | 1003.7 |
| 20260507093030 | 3 | 348 | 0.0 | 0.0 | 0.00 | 0.38 | 0.00 | 93 | 1003.7 |
| 20260507091535 | 4 | 356 | 0.0 | 0.0 | 0.00 | 0.38 | 0.00 | 93 | 1003.7 |
| 20260507090036 | 4 | 353 | 0.0 | 0.0 | 0.00 | 0.38 | 0.00 | 93 | 1003.7 |
| 20260507084529 | 4 | 341 | 0.0 | 0.0 | 0.00 | 0.38 | 0.00 | 93 | 1003.7 |
| 20260507083032 | 4 | 332 | 0.0 | 3.2 | 0.00 | 0.38 | 0.00 | 93 | 1003.8 |
| 20260507081526 | 4 | 337 | 0.0 | 0.0 | 0.00 | 0.38 | 0.00 | 93 | 1003.6 |
| 20260507080025 | 4 | 336 | 0.0 | 0.0 | 0.00 | 0.38 | 0.00 | 93 | 1003.8 |
| 20260507074524 | 4 | 3 | 1.6 | 32.2 | 0.00 | 0.38 | 0.00 | 93 | 1003.9 |
| 20260507073022 | 4 | 9 | 22.5 | 38.6 | 0.00 | 0.38 | 0.00 | 93 | 1004.0 |
| 20260507071520 | 4 | 12 | 20.9 | 40.2 | 0.00 | 0.38 | 0.00 | 93 | 1003.9 |
| 20260507070021 | 4 | 342 | 14.5 | 27.4 | 0.00 | 0.38 | 0.00 | 93 | 1004.1 |
| 20260507064513 | 4 | 328 | 11.3 | 29.0 | 0.00 | 0.38 | 0.00 | 93 | 1004.3 |
| 20260507063011 | 4 | 20 | 1.6 | 24.1 | 0.00 | 0.38 | 0.00 | 93 | 1004.3 |
| 20260507061509 | 4 | 360 | 0.0 | 20.9 | 0.00 | 0.38 | 0.00 | 93 | 1004.3 |
| 20260507060007 | 5 | 19 | 0.0 | 0.0 | 0.00 | 0.38 | 0.00 | 93 | 1004.4 |
| 20260507054513 | 5 | 26 | 0.0 | 0.0 | 0.00 | 0.38 | 0.00 | 92 | 1004.5 |
| 20260507053004 | 5 | 31 | 0.0 | 3.2 | 0.00 | 0.38 | 0.00 | 92 | 1004.6 |
| 20260507051502 | 5 | 4 | 0.0 | 0.0 | 0.00 | 0.38 | 0.00 | 93 | 1004.7 |